Location: Roma
(41.9028°N, 12.4964°E)
Time: 10:07:10
(UTC+02:00)

ISS - Visible Passes

Search period start: 21 July 2018 00:00
Search period end: 31 July 2018 00:00
Orbit: 402 x 408 km, 51.6° (Epoch: 21 July)

Date Brightness Start Highest point End Pass type
(mag) Time Alt. Az. Time Alt. Az. Time Alt. Az.
21 Jul -0.6 01:25:10 10° NW 01:27:11 15° N 01:29:13 10° NE visible
21 Jul -1.6 03:01:35 10° NW 03:04:29 27° NNE 03:07:22 10° E visible
21 Jul -3.6 04:37:54 10° WNW 04:41:07 48° SW 04:44:17 10° SE visible
21 Jul -3.4 21:17:52 10° SSW 21:20:57 40° SE 21:24:03 10° ENE visible
21 Jul -1.8 22:54:33 10° W 22:57:30 30° NNW 23:00:28 10° NE visible
22 Jul -0.6 00:32:43 10° NW 00:34:45 15° N 00:36:48 10° NE visible
22 Jul -1.1 02:09:34 10° NW 02:12:09 21° NNE 02:14:44 10° ENE visible
22 Jul -3.9 03:45:42 10° NW 03:49:00 87° NNE 03:52:19 10° SE visible
22 Jul -2.7 22:02:04 10° WSW 22:05:14 46° NNW 22:08:26 10° NE visible
22 Jul -0.7 23:40:05 10° NW 23:42:19 17° N 23:44:34 10° NNE visible
23 Jul -0.8 01:17:29 10° NNW 01:19:45 17° N 01:20:49 15° NE visible
23 Jul -3.7 21:09:46 10° WSW 21:13:02 83° NW 21:16:20 10° NE visible
23 Jul -1.0 22:47:23 10° WNW 22:49:55 20° NNW 22:52:27 10° NE visible
24 Jul -0.7 00:25:16 10° NW 00:27:18 15° N 00:29:05 11° NE visible
24 Jul -0.6 02:01:33 10° NW 02:01:40 11° NW 02:01:40 11° NW visible
24 Jul -1.5 21:54:42 10° W 21:57:32 26° NNW 22:00:23 10° NE visible
24 Jul -0.7 23:32:50 10° NW 23:34:50 15° N 23:36:50 10° NE visible
25 Jul -0.9 01:09:30 10° NW 01:10:39 17° NNW 01:10:39 17° NNW visible
25 Jul -2.2 21:02:07 10° W 21:05:13 39° NNW 21:08:20 10° NE visible
25 Jul -0.8 22:40:13 10° NW 22:42:22 16° N 22:44:31 10° NNE visible
26 Jul -1.1 00:17:25 10° NNW 00:19:47 18° NNE 00:19:51 18° NNE visible
26 Jul -1.0 21:47:29 10° WNW 21:49:54 19° NNW 21:52:19 10° NNE visible
26 Jul -0.9 23:25:12 10° NNW 23:27:18 16° N 23:29:08 11° NE visible
27 Jul -0.6 01:01:25 10° NW 01:01:45 12° NW 01:01:45 12° NW visible
27 Jul -0.9 22:32:49 10° NW 22:34:48 15° N 22:36:48 10° NE visible
28 Jul -1.2 00:09:20 10° NW 00:11:04 21° N 00:11:04 21° N visible
28 Jul -0.9 21:40:13 10° NW 21:42:17 15° N 21:44:22 10° NNE visible
28 Jul -1.4 23:17:12 10° NW 23:19:41 19° NNE 23:20:27 18° NE visible
29 Jul -1.1 22:25:01 10° NNW 22:27:11 16° N 22:29:23 10° NE visible
30 Jul -1.2 00:01:09 10° NW 00:02:28 21° NW 00:02:28 21° NW visible
30 Jul -1.0 21:32:39 10° NW 21:34:40 15° N 21:36:40 10° NE visible
30 Jul -2.1 23:09:01 10° NW 23:11:53 28° NNE 23:11:53 28° NNE visible
